Weather in Ulyanovsk

Russia / Ulyanovsk Oblast     54°19′00″N   48°24′09″E
temp.,
°C
wind,
m/s
gust,
m/s
humid.,
%
clouds,
%
prec.,
mm/h
press.,
hPa
HPBL,
m
14 june, mon
mon1401:00+15sse228797 0.0 101321
04:00+15ssw2386100 0.0 101427
07:00+17ssw2286100 0.0 101555
10:00+18wsw238199 0.0 1016141
13:00+20nne1175100 0.0 1016296
16:00+21n117477 0.3 1015375
19:00+20n2379100 0.3 101532
22:00+19nne2280100 1.2 101414
15 june, tue
tue1501:00+17ne2289100 1.1 101428
04:00+16nw1195100 2.3 101412
07:00+16nne2398100 1.2 101459
10:00+16ne239895 1.6 101469
13:00+17ene0193100 0.1 101398
16:00+18e1292100 0.1 1013105
19:00+19e238734 0.1 1012121
22:00+18ene34955 0.2 101145
16 june, wed
wed1601:00+17ne33955 0.0 100929
04:00+16ne349285 0.0 100944
07:00+17se2489100 0.3 100881
10:00+19se337996 0.9 1007124
13:00+21se126965 0.0 1007282
16:00+22w12695 0.1 1006398
19:00+23ssw23710 0.1 100677
22:00+20sw44823 0.1 100740
17 june, thu
thu1701:00+18wnw358812 0.1 100855
04:00+17nnw6119688 2.4 1011238
07:00+16nnw7119095 0.1 1013366
10:00+17n811730 0.1 1015443
13:00+19n710600 0.0 1017619
16:00+19n710540 0.0 1018697
19:00+19nnw59620 0.0 1019363
22:00+16nnw34730 0.0 102046
18 june, fri
fri1801:00+15nw34750 0.0 102153
04:00+14nnw45750 0.0 1022100
07:00+15n34740 0.0 1024122
10:00+17n45640 0.0 1025248
13:00+19nne46570 0.0 1025584
16:00+20nne57564 0.0 1025651
19:00+19nne23643 0.0 1025235
22:00+17sw117093 0.0 102611